Probability
0 0 0 0 0 0 0 1 3 3 3 4 4 4 2 2 3 3 4 6 6 4 2 2 3 3 3 2 1 0 0 0 0 0 0 0 0 0 0 0 0 0 0
0 0 0 0 0 0 1 2 3 3 3 4 4 4 3 2 3 3 4 6 6 4 2 3 3 3 3 3 1 0 0 0 0 0 0 0 0 0 0 0 0 0 0
0 0 0 1 0 0 1 2 3 3 3 3 4 4 3 2 2 2 4 6 6 4 3 3 3 3 3 3 2 1 0 0 0 0 0 0 0 0 0 0 0 0 0
0 0 0 0 0 0 1 2 3 3 3 3 3 3 3 2 1 2 3 5 5 4 3 3 3 3 3 3 2 1 0 0 0 0 0 0 0 0 0 0 0 0 0
0 0 0 0 0 0 1 2 3 3 3 3 3 3 3 3 2 2 2 2 3 3 2 2 2 2 3 3 2 1 0 0 0 0 0 0 1 1 1 0 0 0 0
0 0 0 0 0 0 1 2 3 3 3 3 3 3 3 3 3 2 1 0 1 1 1 1 2 2 3 3 3 1 0 0 0 0 0 0 1 1 1 1 1 1 0
0 0 0 0 0 0 0 1 2 3 3 3 3 3 3 2 2 1 0 0 0 0 0 1 1 1 2 2 2 1 0 0 0 0 0 0 0 0 0 1 2 1 0
1 0 0 0 0 0 0 0 1 2 2 2 2 2 1 1 1 0 0 0 0 0 0 0 0 0 1 1 1 1 0 0 0 0 0 0 0 0 1 2 2 1 0
1 0 0 0 0 0 0 0 0 1 1 1 0 0 0 0 0 0 0 0 0 0 0 0 0 0 0 0 0 0 0 0 0 0 0 0 0 0 1 2 2 1 0
1 0 0 0 0 0 0 0 0 0 0 0 0 0 0 0 0 0 0 0 0 0 0 0 1 1 0 0 1 1 1 1 1 0 0 0 0 0 1 2 2 1 0
0 0 0 0 0 0 0 0 0 0 0 0 0 0 0 0 0 0 0 0 0 0 0 0 1 1 0 0 1 2 2 2 1 0 0 0 0 0 0 1 1 0 0
0 0 0 0 0 0 0 0 0 0 0 0 0 0 0 0 0 0 0 0 0 1 0 0 1 1 0 0 1 2 2 1 1 0 0 1 1 0 0 0 0 0 0
0 0 0 0 0 0 0 0 0 0 0 0 0 0 0 0 0 0 0 0 0 0 0 0 0 0 0 0 0 1 1 0 0 0 0 1 2 1 1 1 0 0 0
0 0 0 0 0 0 0 0 0 0 0 0 0 0 0 0 0 0 0 0 0 0 0 0 0 0 0 0 0 0 0 0 0 0 0 1 3 3 3 2 1 0 0
0 0 0 0 0 0 0 0 0 0 0 0 0 0 0 0 0 0 0 0 0 0 0 0 0 0 0 0 0 0 0 0 0 0 0 0 2 4 3 2 1 0 0
0 0 0 0 0 0 0 0 0 0 0 0 0 0 0 0 0 0 0 0 0 0 0 0 0 0 0 0 0 0 0 0 0 0 0 0 1 2 3 1 0 0 0
0 0 0 0 0 0 0 0 0 0 0 0 0 0 0 0 0 0 0 0 0 0 0 0 0 0 0 0 0 0 0 0 0 0 0 0 0 1 2 1 1 0 0
0 0 0 0 0 0 0 0 0 0 0 0 0 0 0 0 0 0 0 0 0 0 0 0 0 0 0 0 0 0 0 0 0 0 0 0 0 1 2 2 2 1 0
0 0 0 0 0 0 0 0 0 0 0 0 0 0 0 0 0 0 0 0 0 0 0 0 0 0 0 0 0 0 0 0 0 0 0 0 0 0 1 1 2 2 1
1 0 0 0 0 0 0 0 0 0 0 0 0 0 0 0 0 0 0 0 0 0 0 0 0 0 0 0 0 0 0 0 0 0 0 0 0 0 0 0 1 2 2
1 0 0 0 0 0 0 0 0 0 0 0 0 0 0 0 0 0 0 0 0 0 0 0 0 0 0 0 0 0 0 0 0 0 0 0 0 0 0 0 0 1 2
1 0 0 0 0 0 0 0 0 0 0 0 0 0 0 0 0 0 0 0 0 0 0 0 0 0 0 0 0 0 0 0 0 0 0 0 0 0 0 0 0 1 1
0 0 0 0 0 0 0 0 0 0 0 0 0 0 0 0 0 0 0 0 0 0 0 0 0 0 0 0 0 0 0 0 0 0 0 0 0 0 0 0 1 2 2
0 1 1 1 0 0 0 0 0 0 0 1 0 0 0 0 0 0 0 0 0 0 0 0 0 0 0 0 0 0 0 0 0 0 0 0 0 0 0 0 1 3 3
0 1 2 1 0 0 0 0 0 0 0 1 0 0 0 0 0 0 0 0 0 0 0 0 0 0 0 0 0 0 0 0 0 0 0 0 0 0 0 0 2 3 3
0 1 2 2 1 0 0 0 0 0 1 1 1 0 0 0 0 0 0 0 0 0 0 0 0 0 0 0 0 0 0 0 0 0 0 0 0 0 0 0 1 3 3
Wind_Speed
1 1 5 6 7 8 9 9 10 10 11 11 12 12 12 12 12 12 11 11 11 11 10 10 10 10 10 10 10 9 9 9 9 9 8 8 8 7 7 7 6 4 7
4 2 6 7 8 9 10 10 10 11 11 12 12 12 12 12 12 12 11 11 11 11 10 10 10 10 9 9 9 9 9 8 9 8 8 7 8 7 7 7 7 4 6
5 4 6 8 9 9 10 10 11 11 12 12 12 12 12 12 12 12 11 11 11 10 10 10 10 9 9 9 9 9 9 9 9 9 8 4 5 8 8 7 7 7 7
6 4 6 9 9 10 10 11 11 11 11 12 12 12 12 12 12 12 11 11 10 10 9 9 9 9 9 9 8 9 9 9 9 9 5 4 4 8 8 8 7 7 7
6 4 6 9 10 10 10 10 11 11 11 11 11 11 11 11 11 11 11 11 10 10 9 9 8 8 8 8 8 9 9 10 10 7 4 4 3 7 8 7 7 7 7
6 4 6 10 10 10 10 10 11 11 11 11 11 11 11 11 11 11 11 11 10 10 9 9 8 8 8 9 9 9 10 10 8 5 4 3 3 7 8 8 7 7 6
6 4 5 10 10 10 10 10 11 11 10 10 11 10 10 10 10 11 11 11 10 9 9 9 8 8 8 9 9 10 10 10 6 4 4 3 4 8 9 8 8 7 6
7 5 5 9 10 10 10 10 10 10 10 10 10 10 10 10 10 10 10 9 10 10 9 8 8 8 8 8 9 9 9 8 6 5 4 3 7 8 8 8 8 8 7
6 5 3 4 6 8 9 9 9 9 10 10 9 9 9 9 9 9 8 9 9 8 8 8 8 7 8 8 9 9 9 9 4 2 4 3 7 8 8 8 8 7 7
5 5 4 3 3 3 3 7 9 9 9 9 9 9 9 8 7 7 6 7 7 7 7 6 7 7 7 8 8 8 8 7 4 3 2 3 8 8 8 8 7 7 7
5 3 4 4 3 2 2 5 5 7 7 6 6 7 6 3 2 3 4 5 5 5 6 5 6 6 6 7 7 8 6 2 3 2 1 5 7 7 7 8 8 7 7
5 4 3 4 3 3 3 3 2 2 2 3 2 3 2 2 2 2 3 4 4 4 5 5 6 5 4 3 5 6 2 2 2 1 2 6 6 6 7 7 8 8 7
5 5 4 4 4 3 2 2 1 1 1 2 2 2 1 1 1 2 1 2 3 3 3 4 4 2 2 2 2 3 2 2 1 1 1 5 5 6 6 7 8 8 7
5 5 4 4 4 3 3 2 2 1 1 1 1 2 2 1 1 1 1 1 2 2 2 2 2 3 3 3 3 3 3 2 2 1 1 4 5 5 6 7 8 7 7
5 4 5 5 4 3 3 2 2 1 1 1 1 1 2 2 1 1 1 1 1 1 2 2 2 3 3 3 3 3 3 3 2 2 2 4 4 5 6 7 7 7 7
5 5 5 5 5 4 3 2 2 1 1 1 1 1 2 2 2 2 1 2 2 1 2 2 3 3 3 3 3 3 3 2 2 2 2 3 6 6 6 7 7 7 7
5 5 5 6 5 5 4 3 2 2 2 1 1 1 2 2 2 2 2 2 1 1 2 3 4 3 3 4 3 3 3 2 2 2 2 2 3 5 6 6 7 8 8
5 5 5 5 5 4 3 3 2 2 2 1 1 1 2 2 3 3 2 1 1 2 2 3 3 3 3 3 2 2 2 2 2 2 2 2 2 2 4 5 5 6 7
6 5 5 5 5 4 4 3 3 2 2 1 2 2 2 2 3 3 2 1 2 2 2 2 2 2 2 2 2 2 2 1 1 2 2 2 2 2 2 3 5 6 6
5 5 5 5 5 4 3 3 2 2 2 2 2 2 2 2 3 3 2 2 2 2 2 2 2 2 2 1 2 3 2 2 2 2 1 1 1 2 2 2 2 4 6
4 4 5 4 4 4 3 2 2 1 1 1 1 2 2 2 2 3 2 2 2 2 2 1 2 2 2 1 2 3 3 3 3 2 1 1 1 1 1 1 1 1 2
6 5 5 5 4 4 3 3 2 2 1 1 1 1 1 2 2 2 3 2 1 2 2 2 2 1 1 1 2 2 2 4 3 3 2 1 1 1 1 1 1 1 1
6 6 6 6 5 5 4 3 3 2 2 1 1 0 0 2 2 2 2 2 2 2 1 1 1 2 0 1 1 3 2 1 2 3 2 2 2 1 1 1 1 1 1
7 6 6 7 6 5 5 5 5 3 2 2 2 1 1 1 2 2 2 2 2 1 2 1 1 1 2 0 1 0 2 3 2 1 3 2 2 1 1 1 1 0 0
6 6 6 6 5 5 5 6 5 4 2 2 1 1 1 0 1 1 2 2 1 1 2 1 1 1 1 2 1 1 1 1 1 2 1 3 3 2 1 1 0 0 0
4 4 5 5 5 5 5 5 6 5 4 3 2 2 1 1 1 1 1 1 1 1 1 1 1 2 1 1 1 1 2 2 1 2 2 1 2 3 2 1 0 1 1
Wind_Direction
155 161 98 93 95 94 92 89 88 87 85 86 88 87 84 81 80 81 83 82 84 87 89 87 87 85 85 88 89 88 85 86 85 83 82 82 83 85 88 92 89 81 83
153 137 102 98 98 96 94 93 90 89 88 89 90 87 84 83 81 80 83 83 84 87 90 89 87 86 86 86 87 87 84 84 84 81 76 76 79 82 86 92 94 92 90
128 116 106 103 100 98 97 97 94 92 91 91 90 88 86 84 82 80 82 84 86 87 88 90 87 88 87 84 83 83 83 83 82 78 70 64 77 81 84 91 94 93 88
124 117 112 108 103 99 98 99 98 96 94 92 90 89 87 85 83 80 81 84 87 88 88 88 89 89 86 83 80 82 85 87 83 76 62 57 67 81 81 83 86 87 83
119 116 120 113 109 104 101 101 100 98 96 94 91 91 90 89 86 83 80 85 87 88 89 89 88 90 85 80 78 80 84 85 82 72 63 55 61 78 78 78 79 82 82
123 123 123 117 113 109 105 103 103 101 99 96 95 93 92 92 90 86 82 82 86 87 85 86 87 87 81 77 74 78 83 85 79 66 60 55 62 80 78 75 74 77 78
129 130 129 121 117 112 109 106 103 102 100 98 97 95 93 92 94 91 86 80 82 87 85 84 84 84 80 75 74 80 83 86 84 71 61 57 72 79 77 75 71 71 69
138 137 133 129 122 116 114 112 107 104 102 99 96 97 97 93 93 94 90 85 81 80 81 80 81 81 77 73 76 80 84 84 89 82 67 63 80 77 75 72 68 65 63
132 129 123 126 123 123 120 115 111 108 105 100 97 98 98 95 92 90 88 88 85 82 78 75 77 79 75 73 74 77 86 85 79 80 82 74 84 81 77 72 69 67 63
125 129 130 119 111 110 119 118 114 110 108 105 101 98 96 95 94 90 87 86 82 82 80 75 74 70 70 69 73 75 82 80 75 73 71 88 86 82 79 74 71 70 66
127 133 134 124 116 114 121 118 113 112 109 107 102 101 91 73 71 75 78 85 81 75 70 70 73 67 61 59 66 73 78 70 76 71 70 92 91 84 78 75 73 71 64
144 155 147 136 132 126 121 98 79 86 87 81 80 87 80 73 62 75 62 71 66 52 47 55 61 62 54 43 57 62 61 66 72 72 86 92 92 85 77 74 71 69 64
150 152 150 146 143 135 112 106 80 74 70 66 75 84 82 65 50 48 36 35 30 34 27 31 38 41 46 48 56 57 58 61 49 39 87 95 92 87 80 76 70 65 60
138 150 155 146 137 134 121 117 105 93 84 77 71 86 93 76 53 47 51 40 34 30 34 32 35 42 50 56 68 72 66 59 37 12 60 90 90 87 84 79 71 64 59
149 150 147 142 141 133 118 119 115 111 123 128 89 83 102 105 95 76 57 45 40 40 45 45 42 60 65 61 66 73 71 61 49 37 31 71 77 80 80 79 71 63 61
154 147 142 143 145 138 137 133 127 121 108 92 83 87 101 104 102 99 74 52 36 43 58 68 66 71 63 64 62 55 61 60 50 48 37 48 60 65 74 71 65 60 61
156 148 145 145 142 141 136 129 123 119 113 104 95 89 93 102 102 98 81 61 37 46 62 62 59 59 60 59 54 48 49 44 44 50 54 48 39 50 64 68 65 58 59
150 145 150 144 139 135 126 122 118 115 113 112 97 90 86 96 105 107 92 73 54 59 64 70 61 58 51 50 46 40 48 47 40 41 52 50 45 38 48 64 67 64 59
157 153 148 142 139 138 130 119 113 108 101 101 91 89 88 98 104 107 100 93 81 70 58 68 62 70 61 40 36 37 34 46 42 51 45 45 49 50 36 42 53 57 56
158 152 148 145 142 137 124 101 86 84 80 78 90 97 95 94 98 98 96 88 87 81 60 59 69 55 62 35 35 27 11 15 41 55 60 55 49 50 47 36 39 38 49
152 147 149 146 152 145 132 127 119 123 114 78 92 109 102 96 102 106 104 94 87 93 97 92 86 66 38 33 51 16 1 9 30 29 28 40 39 38 58 48 61 51 30
168 164 156 160 159 159 157 153 148 147 147 149 123 99 103 108 113 114 117 122 109 96 80 73 81 82 22 43 102 73 10 354 355 6 11 31 17 24 48 61 74 77 67
173 175 170 172 167 165 152 129 109 82 63 57 50 80 144 133 124 120 132 131 131 121 128 129 127 124 118 353 107 137 139 221 311 331 347 359 3 18 2 6 77 83 86
186 179 171 170 166 165 155 147 149 151 165 193 186 191 196 147 138 134 143 143 147 141 148 170 139 138 137 185 339 67 161 161 150 316 329 337 347 356 341 352 41 58 59
181 173 169 165 165 166 163 159 157 159 170 165 156 152 165 218 167 155 160 149 151 164 176 175 135 131 152 166 173 161 98 79 115 145 287 322 335 323 317 296 252 259 276
168 164 160 159 166 167 162 160 160 164 165 155 165 175 195 249 256 226 185 168 178 188 192 190 177 154 166 160 160 157 155 152 172 157 187 277 304 307 317 303 240 238 241